Preview of NWS' New Version of Forecast
This preview is not operational and should not be used for support decisions.

Regional Weather Roundup (RWR)

Issued by National Weather Service (NWS)

                            
000
ASUS43 KMKX 212200
RWRWI 

WISCONSIN REGIONAL WEATHER ROUNDUP
NATIONAL WEATHER SERVICE MILWAUKEE/SULLIVAN WI
500 PM CDT WED AUG 21 2019

NOTE: "FAIR" INDICATES FEW OR NO CLOUDS BELOW 12,000 FEET WITH NO
SIGNIFICANT WEATHER AND/OR OBSTRUCTIONS TO VISIBILITY.

WIZ001-002-006>008-014>016-023>028-212300-
NORTHWEST WISCONSIN
  
CITY           SKY/WX    TMP DP  RH WIND       PRES   REMARKS
SUPERIOR ARPT  PTSUNNY   72  47  41 NW5       30.02R                  
ASHLAND        PTSUNNY   74  48  39 NW12G22   30.01F                  
HAYWARD        FAIR      70  46  42 CALM      30.03F                  
SIREN          PTSUNNY   73  47  39 NW8       30.04S                  
CUMBERLAND     FAIR      68  46  45 NW9       30.04S                  
RICE LAKE      FAIR      73  49  43 N7        30.04S                  
CHETEK         FAIR      73  51  45 CALM      30.04R                  
LADYSMITH      FAIR      73  49  42 NW12      30.05R                  
EAU CLAIRE     NOT AVBL                                               
MENOMONIE      FAIR      69  49  48 W6        30.03F                  
NEW RICHMOND   FAIR      71  50  47 NW5       30.05S                  
OSCEOLA        PTSUNNY   74  53  47 NW10      30.06S                  
$$
 
WIZ003>005-009-010-017-018-212300-
NORTH CENTRAL WISCONSIN
  
CITY           SKY/WX    TMP DP  RH WIND       PRES   REMARKS
MANITOWISH WTR PTSUNNY   65  46  50 NW8G16    30.03S                  
ARBOR VITAE    FAIR      72  49  44 NW13      30.03R                  
WOODRUFF       FAIR      72  49  44 NW13      30.03R                  
RHINELANDER    FAIR      69  45  41 NW8       30.02S                  
EAGLE RIVER    FAIR      67  40  36 NW10G18   30.02R                  
LAND O LAKES   PTSUNNY   65  43  45 N10G17    30.04R                  
PHILLIPS       FAIR      69  48  47 N6        30.02S                  
TOMAHAWK       FAIR      69  45  41 NW8       30.02S                  
MEDFORD        FAIR      68  49  49 NW8G17    30.02R                  
MERRILL        FAIR      72  47  42 N8        30.01S                  
$$
 
WIZ029-030-035-036-043>047-212300-
CENTRAL WISCONSIN
  
CITY           SKY/WX    TMP DP  RH WIND       PRES   REMARKS
WAUSAU         FAIR      72  44  36 NW10G22   29.99R                  
MOSINEE        MOSUNNY   72  48  43 NW12      30.02R                  
MARSHFIELD     FAIR      73  50  44 NW13      30.02R                  
STEVENS POINT  FAIR      73  49  43 NW8       30.00S                  
WAUPACA        FAIR      78  49  36 NW5       29.98R                  
WAUTOMA        FAIR      76  52  43 NW7       29.99S                  
WISC RAPIDS    FAIR      75  50  41 N13       30.00S                  
CAMP DOUGLAS   NOT AVBL                                               
$$
 
WIZ011>013-019>022-031-037>040-048>050-212300-
NORTHEAST WISCONSIN
  
CITY           SKY/WX    TMP DP  RH WIND       PRES   REMARKS
ANTIGO         FAIR      71  47  43 W13       30.01R                  
SHAWANO        PTSUNNY   78  48  34 NW10      29.97R                  
OCONTO         FAIR      77  50  38 NW6       29.94S                  
STURGEON BAY   PTSUNNY   76  57  51 NW8       29.95R                  
GREEN BAY      FAIR      79  51  37 N8        29.96R                  
MANITOWOC      FAIR      77  54  44 NW10      29.95S                  
APPLETON       PTSUNNY   75  50  41 NW10      29.96R                  
CLINTONVILLE   FAIR      75  45  33 NW9       29.97R                  
OSHKOSH        FAIR      76  51  41 NW9       29.96S                  
$$
 
WIZ032>034-041-042-053>061-212300-
SOUTHWEST WISCONSIN
  
CITY           SKY/WX    TMP DP  RH WIND       PRES   REMARKS
LA CROSSE      FAIR      77  52  41 NW10      30.01S                  
SPARTA         FAIR      73  52  46 N7        30.02S                  
VIROQUA        FAIR      72  56  56 N8        30.03S                  
BOSCOBEL       FAIR      78  60  53 NW8       29.99S                  
PRAIRIE DU CHI FAIR      75  57  52 NW8       29.99F                  
PLATTEVILLE    FAIR      75  66  74 N10       30.00F                  
$$

WIZ056-057-062-063-064-067-068-212300-
SOUTH CENTRAL WISCONSIN
  
CITY           SKY/WX    TMP DP  RH WIND       PRES   REMARKS
REEDSBURG      FAIR      74  56  52 NW9       29.99S                  
BARABOO/DELLS  FAIR      74  55  51 NW6       30.00S                  
LONE ROCK      NOT AVBL                                               
MINERAL POINT  FAIR      77  66  69 MISG      30.01S                  
MADISON        PTSUNNY   78  60  53 NW8       29.97F                  
MIDDLETON      FAIR      79  50  36 NW12      29.99F                  
WATERTOWN      FAIR      75  63  65 NW9       29.97F                  
MONROE         FAIR      77  63  63 NW9       29.98S                  
JANESVILLE     PTSUNNY   82  68  61 NW7       29.95F HX  85           
$$
 
WIZ051-052-058>065-066-070>072-212300-
SOUTHEAST WISCONSIN
  
CITY           SKY/WX    TMP DP  RH WIND       PRES   REMARKS
MILWAUKEE      PTSUNNY   80  59  48 NW9       29.95S HX  81           
WAUKESHA       SUNNY     73  61  64 NW10G16   29.97F                  
MILWAUKEE/TIMM SUNNY     77  57  50 NW12      29.96F                  
RACINE         FAIR      80  67  64 N7        29.95F HX  82           
KENOSHA        FAIR      80  70  71 NW9       29.94F HX  83           
FOND DU LAC    FAIR      79  55  43 NW13      29.97S                  
SHEBOYGAN      FAIR      78  54  43 NW9       29.95S                  
WEST BEND      FAIR      75  59  57 NW9       29.97S                  
JUNEAU         FAIR      75  59  56 W3        29.99S                  
$$

LSZ147-162-212300-
LAKE SUPERIOR
  
STATION/POSITION TIME  TEMP    WIND        PRES    WAVE
                       AIR SEA DIR/SP/G            HT/PER
                 (UTC) (F)     (DEG/KT/KT) (MB)    (FT/S)
W MID LAKE BUOY  2050   65 64  270/ 10/ 10 1014.9F   1/ 4
DEVILS ISLAND    2100   67     260/ 11/ 12 1015.9F
SAXON HARBOR     2140   70     320/  9/ 12 1015.9S
$$
 
LMZ867-665-643>646-212300-
LAKE MICHIGAN
  
STATION/POSITION TIME  TEMP    WIND        PRES    WAVE
                       AIR SEA DIR/SP/G            HT/PER
                 (UTC) (F)     (DEG/KT/KT) (MB)    (FT/S)
S GREEN BAY BUOY 2130   79 72  310/ 12/ 14 1014.0R
N MID LAKE BUOY  2140   71 71  360/ 12/ 16 1013.9R
NORTHPORT PIER   2140   74     300/  6/  7 1013.2R
KEWAUNEE LAKESHO 2124   77     340/  8/ 12 1013.4
SHEBOYGAN LAKESH 2100   70     130/  5/  5 1014.3S
PORT WASHINGTON  2140   74      50/  3/  5 1015.2S
ATWATER BUOY     2130   76 72  310/ 12/ 14 1014.3F   1
S MID LAKE BUOY  2140   74 75   20/  8/ 10 1013.9F
KENOSHA   LAKESH 2100   79     300/  9/ 11 1013.5
$$

TC  - TEMPERATURE IN CELSIUS
VSB - VISIBILITY IN STATUTE MILES
WCI - WIND CHILL INDEX
HX  - HEAT INDEX